DW9231 Weather Reports


time (UTC)temp
F
wind
direction
speed
knots
gust
knots
rain 1hr
in
rain 24hr
in
rain mn
in
humidity
%
barometer
mb
20260508064509 57 53 1.7 7.8 0.00 0.00 0.00 19 1015.6
20260508063013 56 65 3.5 8.7 0.00 0.00 0.00 19 1015.5
20260508061508 57 60 3.5 7.8 0.00 0.00 0.00 19 1015.4
20260508060006 56 68 2.6 7.8 0.00 0.00 0.00 20 1015.4
20260508054505 56 74 5.2 7.8 0.00 0.00 0.00 20 1015.5
20260508053005 57 60 5.2 8.7 0.00 0.00 0.00 19 1015.5
20260508051504 57 53 5.2 8.7 0.00 0.00 0.00 19 1015.6
20260508050005 58 57 4.3 7.8 0.00 0.00 0.00 19 1015.6
20260508044503 58 53 5.2 8.7 0.00 0.00 0.00 19 1015.5
20260508043003 59 38 3.5 7.0 0.00 0.00 0.00 18 1015.6
20260508041504 60 71 2.6 5.2 0.00 0.00 0.00 17 1015.5
20260508040002 60 82 3.5 6.1 0.00 0.00 0.00 17 1015.4
20260508034501 61 71 3.5 6.1 0.00 0.00 0.00 18 1015.3
20260508033003 60 70 4.3 8.7 0.00 0.00 0.00 19 1015.0
20260508031502 61 59 1.7 4.3 0.00 0.00 0.00 18 1014.7
20260508024601 62 63 2.6 7.0 0.00 0.00 0.00 18 1014.4
20260508023100 64 89 2.6 5.2 0.00 0.00 0.00 17 1014.2
20260508021601 65 120 0.0 1.7 0.00 0.00 0.00 17 1014.0
20260508020103 67 134 0.0 0.9 0.00 0.00 0.00 16 1013.9
20260508014559 68 167 1.7 4.3 0.00 0.00 0.00 15 1013.8
20260508013101 69 139 2.6 5.2 0.00 0.00 0.00 14 1013.6
20260508011604 69 136 1.7 5.2 0.00 0.00 0.00 14 1013.5
20260508010057 70 124 2.6 7.8 0.00 0.00 0.00 13 1013.5
20260508004556 70 83 0.0 5.2 0.00 0.00 0.00 12 1013.4
20260508003056 71 174 0.0 5.2 0.00 0.00 0.00 13 1013.5
20260508001617 71 171 2.6 7.0 0.00 0.00 0.00 12 1013.5
20260508000056 72 207 0.0 2.6 0.00 0.00 0.00 12 1013.5
20260507234555 71 169 4.3 7.0 0.00 0.00 0.00 12 1013.6
20260507233054 73 212 1.7 6.1 0.00 0.00 0.00 12 1013.8
20260507231552 71 156 0.0 4.3 0.00 0.00 0.00 12 1013.9
20260507230049 71 250 0.9 3.5 0.00 0.00 0.00 13 1014.1
20260507224553 72 341 0.0 1.7 0.00 0.00 0.00 13 1014.3
20260507223048 72 209 2.6 6.1 0.00 0.00 0.00 12 1014.4
20260507221547 71 266 0.0 3.5 0.00 0.00 0.00 12 1014.6
20260507220047 71 237 2.6 5.2 0.00 0.00 0.00 12 1014.7
20260507214545 72 238 3.5 7.8 0.00 0.00 0.00 14 1015.0
20260507213041 69 169 0.9 4.3 0.00 0.00 0.00 14 1015.2
20260507211536 69 203 1.7 7.0 0.00 0.00 0.00 14 1015.5
20260507210033 68 102 0.9 7.0 0.00 0.00 0.00 16 1015.8
20260507204530 69 293 0.9 10.4 0.00 0.00 0.00 16 1016.1
20260507203033 67 225 2.6 6.1 0.00 0.00 0.00 18 1016.3
20260507201530 67 217 1.7 4.3 0.00 0.00 0.00 19 1016.5
20260507200028 67 233 2.6 5.2 0.00 0.00 0.00 21 1016.7
20260507194523 65 238 0.9 7.0 0.00 0.00 0.00 23 1016.8
20260507193025 65 264 1.7 5.2 0.00 0.00 0.00 24 1017.0
20260507191521 64 155 0.0 5.2 0.00 0.00 0.00 24 1017.3
20260507190019 63 174 0.9 4.3 0.00 0.00 0.00 25 1017.5
20260507184516 62 199 2.6 6.1 0.00 0.00 0.00 25 1017.7
20260507183012 61 227 1.7 7.0 0.00 0.00 0.00 25 1018.0
20260507181510 60 316 2.6 4.3 0.00 0.00 0.00 26 1018.2
20260507180008 61 218 1.7 7.0 0.00 0.00 0.00 28 1018.5
20260507174505 61 176 0.9 7.8 0.00 0.00 0.00 30 1018.6
20260507173003 59 200 0.9 5.2 0.00 0.00 0.00 31 1018.7
20260507171504 58 63 1.7 5.2 0.00 0.00 0.00 32 1018.9
20260507170057 58 229 0.9 4.3 0.00 0.00 0.00 27 1019.2
20260507164555 56 360 0.9 3.5 0.00 0.00 0.00 29 1019.3
20260507163055 56 201 0.9 4.3 0.00 0.00 0.00 30 1019.3
20260507161551 55 220 0.0 4.3 0.00 0.00 0.00 32 1019.4
20260507160052 54 89 0.0 3.5 0.00 0.00 0.00 33 1019.3
20260507154548 54 244 0.0 2.6 0.00 0.00 0.00 34 1019.4
20260507153049 52 217 0.0 2.6 0.00 0.00 0.00 36 1019.5
20260507151541 50 77 0.0 0.0 0.00 0.00 0.00 40 1019.6
20260507150041 49 172 0.0 2.6 0.00 0.00 0.00 42 1019.7
20260507144537 48 129 0.0 1.7 0.00 0.00 0.00 44 1019.7
20260507143036 46 154 0.0 4.3 0.00 0.00 0.00 45 1019.7
20260507141533 46 191 0.9 3.5 0.00 0.00 0.00 43 1019.7
20260507140032 46 70 0.0 0.0 0.00 0.00 0.00 36 1019.5
20260507134529 43 70 0.0 2.6 0.00 0.00 0.00 40 1019.5
20260507133027 41 110 0.0 2.6 0.00 0.00 0.00 42 1019.4
20260507131533 41 310 0.0 5.2 0.00 0.00 0.00 38 1019.3
20260507130025 42 58 1.7 6.1 0.00 0.00 0.00 36 1019.2
20260507124523 42 60 0.0 1.7 0.00 0.00 0.00 36 1019.3
20260507123023 41 65 0.0 3.5 0.00 0.00 0.00 36 1019.1
20260507121520 42 72 2.6 6.1 0.00 0.00 0.00 36 1019.0
20260507120033 42 77 3.5 7.0 0.00 0.00 0.00 35 1018.9
20260507114520 42 54 2.6 6.1 0.00 0.00 0.00 36 1019.0
20260507113017 42 56 2.6 7.0 0.00 0.00 0.00 35 1018.9
20260507111519 42 65 2.6 6.1 0.00 0.00 0.00 35 1019.0
20260507110015 41 60 3.5 6.1 0.00 0.00 0.00 35 1019.1
20260507104514 41 33 0.0 0.0 0.00 0.00 0.00 37 1019.1
20260507103010 42 33 0.0 4.3 0.00 0.00 0.00 35 1019.2
20260507101513 43 46 4.3 7.8 0.00 0.00 0.00 34 1019.1
20260507100011 43 60 4.3 7.8 0.00 0.00 0.00 34 1019.1
20260507094512 43 60 4.3 8.7 0.00 0.00 0.00 33 1019.1
20260507093008 43 77 4.3 8.7 0.00 0.00 0.00 34 1019.0
20260507091505 43 60 4.3 7.8 0.00 0.00 0.00 34 1019.1
20260507090008 43 8 2.6 7.8 0.00 0.00 0.00 34 1019.1
20260507084600 43 81 4.3 8.7 0.00 0.00 0.00 34 1019.0
20260507083058 44 79 3.5 7.8 0.00 0.00 0.00 33 1018.9
20260507081602 45 65 3.5 7.0 0.00 0.00 0.00 32 1018.9
20260507080053 45 50 1.7 6.1 0.00 0.00 0.00 32 1018.8
20260507074602 46 64 0.9 3.5 0.00 0.00 0.00 31 1018.9
20260507073047 46 116 0.0 1.7 0.00 0.00 0.00 31 1018.9
20260507071546 49 345 0.0 6.1 0.00 0.00 0.00 27 1018.8
20260507070045 49 341 0.0 4.3 0.00 0.00 0.00 28 1018.6